Regional Weather Roundup
Issued by NWS State College, PA

Home | Current Version | Previous Version | Graphics & Text | Print | Product List | Glossary On
Versions: 1 2 3 4 5 6 7 8 9 10 11 12 13 14 15 16 17 18 19 20 21 22 23 24 25 26 27 28 29 30 31 32 33 34 35 36 37 38 39 40 41 42 43 44 45 46 47 48 49 50
583
ASUS41 KCTP 132203
RWRCTP

REGIONAL WEATHER ROUNDUP
NATIONAL WEATHER SERVICE STATE COLLEGE PA
500 PM EST SAT FEB 13 2016

Note: "fair" indicates few or no clouds below 12,000 feet with no
significant weather and/or obstructions to visibility.

* = STATION THAT DOES NOT REPORT PRECIPITATION /E.G. RAIN...SNOW...ETC/
    THUNDER OR FOG.

PAZ002>004-007>009-013>016-020>023-029>032-132300-
WESTERN PENNSYLVANIA

CITY           SKY/WX    TMP DP  RH WIND       PRES   REMARKS
ERIE           LGT SNOW  10   0  63 NW15G26   30.37R VSB 3/4 WCI  -7
MEADVILLE      LGT SNOW   6  -1  73 NW10G21   30.30R VSB 3/4 WCI  -9
FRANKLIN*      MOCLDY     7  -8  51 W10G21    30.30R WCI  -8
NEW CASTLE     FLURRIES   9  -1  64 NW12G21   30.38R WCI  -6
BEAVER COUNTY  NOT AVBL
BUTLER*        PTCLDY     9  -2  61 W10G24    30.37R WCI  -6
PITTSBURGH INT LGT SNOW   9   2  73 NW15      30.35R WCI  -8
PITTSBURGH     LGT SNOW  11   0  61 W12G25    30.34R WCI  -3
INDIANA*       MOCLDY     9  -6  52 NW12G21   30.32R WCI  -6
LATROBE        LGT SNOW   9   1  72 NW17G29   30.35R WCI -10
WASHINGTON CO* MOCLDY    10  -8  44 W7        30.36S WCI   0
$$

PAZ004>006-010>012-017>019-024>028-033>037-041-042-045-046-049>053-132300-
CENTRAL PENNSYLVANIA

CITY           SKY/WX    TMP DP  RH WIND       PRES   REMARKS
BRADFORD       MOCLDY     1 -10  60 NW20G29   30.14R HAZE    WCI -20
DUBOIS         SNOW       4  -2  76 W18G26    30.20R VSB 1/2 WCI -16
CLEARFIELD     LGT SNOW   7  -3  64 NW14      30.23R WCI -10
JOHNSTOWN      LGT SNOW   3  -5  69 W20       30.17R VSB 3/4 WCI -18
ALTOONA        PTCLDY     8  -9  45 NW18G31   30.23R WCI -11
STATE COLLEGE  FLURRIES   9  -4  56 NW20G28   30.22R WCI -11
WILLIAMSPORT   CLOUDY    11 -13  33 W17G32    30.26R WCI  -6
SELINSGROVE    CLOUDY    13  -8  39 NW17G28   30.28R WCI  -4
FT INDIANTOWN  PTCLDY    13  -9  37 VRB7G23   30.26R WCI   2
CAPITAL CITY   CLOUDY    15  -7  37 NW15G24   30.29R WCI   0
HARRISBURG     MOCLDY    15  -5  40 NW20      30.28R WCI  -2
YORK           CLOUDY    14  -5  42 NW13G18   30.28R WCI   0
$$

PAZ038>040-043-044-047-048-054-055-060>062-067>071-132300-
EASTERN PENNSYLVANIA

CITY           SKY/WX    TMP DP  RH WIND       PRES   REMARKS
SCRANTON       CLOUDY     5 -11  47 NW15G29   30.19R WCI -13
MOUNT POCONO   LGT SNOW   0 -11  59 NW17G25   30.03R WCI -21
ALLENTOWN      CLOUDY    12 -11  35 NW17G31   30.22R WCI  -5
QUAKERTOWN*    PTCLDY    10  -8  44 N10G22    30.22R WCI  -3
READING        MOCLDY    13  -6  42 NW24G32   30.26R WCI  -7
LANCASTER      MOCLDY    13  -4  46 NW20G28   30.26R WCI  -5
COATESVILLE    CLEAR     12  -6  44 NW18G24   30.24R WCI  -5
POTTSTOWN      CLEAR     12  -9  38 NW20G29   30.26R WCI  -6
BLUE BELL        N/A     14  -9  34 NW8G21    30.23R WCI   3
DOYLESTOWN     PTCLDY    11 -12  35 NW15G35   30.21R WCI  -5
WILLOW GROVE   NOT AVBL
NORTH PHILA    MOCLDY    16  -9  32 NW23G31   30.26R WCI  -2
PHILADELPHIA   MOCLDY    17 -12  27 NW18G30   30.27R WCI   1
$$




USA.gov is the U.S. government's official web portal to all federal, state and local government web resources and services.